Lid_Strength_Index
7 11 12 10 9 9 10 11 12 12 11 12 12 11 12 11 11 11 11 12 11 10 8 7 6 6 6 6 6 5 5 3 2 2 1 1 2 1 1 0 0 -0 0 0
10 13 9 8 9 9 10 12 12 11 11 12 12 15 13 13 12 11 11 11 10 9 8 7 7 6 6 6 5 5 5 3 1 1 1 1 1 1 1 0 0 0 0 -0
12 10 7 8 9 11 11 12 11 12 12 12 12 14 14 13 12 12 11 10 10 10 10 8 8 8 7 7 7 6 5 5 4 2 1 1 0 1 1 1 0 0 0 -0
10 8 9 10 10 10 13 9 10 11 13 16 12 18 14 13 14 13 13 13 12 10 9 9 9 9 9 9 7 7 6 6 5 5 4 4 3 3 2 3 2 2 1 1
11 10 11 11 10 9 11 9 10 11 13 14 14 17 15 13 15 14 13 13 13 12 11 11 10 10 9 9 9 9 9 8 8 7 7 7 6 5 5 5 5 5 4 4
9 7 9 9 8 8 8 10 11 12 14 19 15 15 15 15 15 14 13 13 12 12 12 11 11 11 11 11 11 11 11 11 10 10 10 10 10 9 9 8 8 7 6 6
11 11 8 8 10 9 9 13 19 20 20 20 13 16 15 14 14 13 13 13 13 12 12 12 12 12 12 12 12 12 12 12 12 11 12 12 11 10 10 10 10 10 10 9
16 17 11 8 9 12 11 12 18 22 21 19 14 18 17 14 13 13 12 12 12 13 12 12 12 12 12 12 12 12 12 13 12 12 12 12 12 12 11 11 11 12 11 11
15 16 9 9 8 9 12 14 11 15 18 18 17 17 14 14 14 14 14 13 14 13 12 12 12 12 13 12 12 13 13 13 13 12 12 12 13 12 12 12 12 12 11 10
12 16 11 10 9 9 10 9 15 15 20 22 18 18 19 16 15 14 14 14 14 13 12 12 12 12 12 12 12 12 12 13 12 12 11 12 12 12 12 11 12 12 11 11
9 12 14 11 13 13 12 13 13 13 15 19 20 19 14 14 14 15 14 13 13 13 12 11 12 12 12 12 12 12 12 12 13 12 12 12 12 12 12 12 12 12 12 12
9 12 16 14 10 9 10 12 12 17 18 15 16 18 12 12 13 13 13 12 12 11 11 11 11 11 11 11 12 12 12 12 12 12 12 12 12 12 12 12 12 12 12 11
9 13 17 16 13 10 13 12 11 12 13 17 18 18 11 11 12 12 12 11 11 11 10 10 10 10 10 11 11 12 12 12 11 12 11 12 12 13 13 13 12 12 12 12
8 12 15 18 16 13 15 13 12 13 17 16 16 16 12 11 12 11 11 11 11 11 10 11 10 10 11 11 12 12 12 11 12 12 12 13 13 14 14 13 13 13 13 12
9 15 13 14 13 12 13 13 13 14 13 16 14 14 11 9 11 12 11 11 11 11 11 11 11 11 11 11 12 12 12 12 13 13 13 14 13 13 13 13 13 13 12 11
9 14 15 17 15 12 14 12 12 12 12 12 12 12 9 12 12 12 12 11 11 11 11 10 10 10 11 12 13 13 13 13 12 13 13 13 13 13 13 13 13 13 12 12
12 16 18 21 17 19 21 16 13 12 11 12 14 12 12 13 12 12 12 11 11 10 11 11 10 11 12 13 13 14 13 13 13 13 13 14 14 14 14 13 13 13 13 13
15 16 16 20 20 23 15 13 14 12 11 11 11 12 11 12 12 12 11 11 10 11 11 10 11 12 12 13 13 13 13 14 14 14 15 15 15 15 14 14 14 14 14 14
11 13 20 21 22 18 17 15 15 15 14 11 12 12 12 12 13 13 11 11 11 11 10 11 12 12 13 14 15 15 14 15 15 16 16 16 15 15 15 15 15 14 14 14
11 11 17 22 24 25 16 14 13 13 20 12 11 13 13 12 16 15 11 10 10 10 10 12 13 13 14 16 16 16 15 16 17 16 16 16 15 15 16 15 15 15 14 13
20 20 21 22 24 20 15 13 13 21 17 12 11 12 12 13 13 11 10 11 11 11 12 13 14 15 16 16 16 17 17 18 17 16 16 16 16 16 16 16 16 15 15 13
19 20 22 21 24 23 13 14 16 13 12 12 11 11 11 11 11 11 11 12 12 13 14 14 15 16 17 17 18 18 18 18 17 17 18 18 18 17 16 19 18 17 16 16
20 15 17 16 17 13 12 12 11 10 11 11 11 11 11 12 12 12 12 13 13 14 14 15 17 17 17 18 19 19 19 18 19 20 20 20 19 18 18 20 18 18 17 17
14 13 16 16 14 13 12 11 11 11 11 11 12 12 12 12 12 13 13 13 14 15 15 16 18 19 18 20 19 20 20 20 23 24 21 20 20 19 19 17 16 18 18 18
14 14 15 16 13 13 12 12 11 11 11 12 12 12 12 13 13 13 14 14 15 15 16 18 19 19 20 21 22 23 21 22 22 22 21 20 19 21 19 17 18 16 15 15
14 15 16 17 13 13 13 13 12 12 12 12 13 14 13 13 14 14 15 15 16 17 17 19 20 21 23 24 23 23 24 23 25 22 21 21 20 21 19 19 18 14 13 12